Airfield :
LOGIN :

Register | Disclaimer

   EN    FR    IT 

 










Legend :    VFR   Marginal VFR   IFR   Intensive IFR   Very Intensive IFR
Visi :
Ceiling :
>= 8 km
>= 3000ft
5 to 8 km
1000 to 3000 ft
1500m to 5 km
500 to 1000 ft
800 to 1500m
200 to 500 ft
< 800m
< 200 ft
Symbols :   Thunderstorms  Fog  Heavy snow  Heavy precipitations  Wind > 20 kt
SIGMETs :     Misc.  Thunderstorms  Icing  Turbulence  Mountain Waves  Volcanic Ashes







- Airport Elevation : 34 ft
- IATA code : BLK
- Download approach charts


EGNH - Blackpool

CURRENT METAR :
  • 200650Z 29018KT 9999 VCSH SCT015 13/09 Q1009

EXPIRED METARs :
  • 200620Z 29018KT 9999 SCT030 BKN046 13/10 Q1009
  • 200550Z 29018KT 9999 BKN035 13/09 Q1009
  • 200520Z 29019KT 9999 BKN033 13/09 Q1008

TAF TAF EGNH
Valid from the 20 at 06:00 until the 20 at 15:00 UTC


200557Z 2006/2015 29012KT 9999 SCT035
PROB30
TEMPO 2006/2011 28015G25KT 8000 SHRA
ATIS : +44 1253 343 434 (x8315)
No reported NOTAMs for that airfield.



MET'MAP, your aeronautical weather chart ! - Copyright ORBIFLY December 2007 - Disclaimer

ORBIFLY MET'MAP TEAM :

Programming & Development : Alexandra Zaïnal
Concept & Development : Baudouin d'Aumeries
Co-Development & Prog : Marc-Olivier Méhu
Technical & hardware support : Manuel Goepfert

Contact : metmap@orbifly.com




SOURCES & CREDITS :

   NOAA